Location: Aranbee
(34.0885°N, 118.2342°W)
Time: 09:14:31
(UTC+00:00)

Courier 1B Rocket - Pass Details

Date: 05 December 2020
Orbit: 920 x 1202 km, 28.2° (Epoch: 27 January)

Event Time Altitude Azimuth Distance (km) Brightness Sun altitude
Rises 16:02:59 0° 270° (W) 4,096 7.8 12.8°
Reaches altitude 10° 16:06:20 10° 258° (WSW) 3,128 7.3 13.4°
Maximum altitude 16:12:37 27° 205° (SSW) 2,090 7.1 14.4°
Drops below altitude 10° 16:18:44 10° 150° (SSE) 3,037 9.3 15.3°
Sets 16:21:57 0° 139° (SE) 3,956 10.0 15.8°
